Temp
45 45 46 47 48 49 49 49 50 50 50 49 49 49 49 49 49 50 50 50 50 50 51 51 52 52 53 53 53 53 53 54 54 54 54 54 54 54 55 56 57 57 58 59 60 60 60 60 59 59 59 60 60 60 60 61 62 62 62 61 61 62 62 63 63 63 63 63 63
45 45 46 48 49 49 48 49 49 49 49 49 49 49 49 49 49 50 50 50 50 51 51 51 52 52 52 52 52 53 53 53 53 53 53 53 53 54 55 56 56 57 58 59 60 60 60 60 59 59 59 60 60 60 60 60 61 61 61 61 61 62 62 63 63 63 63 63 64
44 45 46 47 47 47 47 48 47 47 47 48 48 48 48 49 49 50 50 50 50 51 51 51 51 51 51 52 52 53 53 53 52 52 52 52 53 54 55 56 56 56 58 60 60 60 60 60 60 60 60 60 59 59 59 60 61 61 61 61 61 62 62 63 63 63 63 63 63
45 46 46 47 46 46 46 47 47 46 47 47 47 48 48 49 50 50 50 50 50 50 51 50 50 51 51 52 52 52 52 52 52 52 52 52 53 54 55 55 55 56 57 59 59 59 60 60 60 60 59 59 59 59 59 60 60 61 61 61 61 61 62 63 64 63 63 63 64
46 47 47 48 47 46 46 46 46 46 47 47 47 48 48 49 50 50 50 50 50 50 51 51 50 51 51 52 52 52 52 52 52 52 52 52 52 53 54 55 55 55 56 58 58 59 59 59 59 59 59 59 59 59 59 59 60 60 60 61 61 61 62 63 64 64 64 63 63
46 47 47 48 47 46 46 47 46 46 46 47 47 47 47 49 49 49 50 49 50 50 50 51 51 51 51 51 51 51 51 51 51 51 51 51 52 52 53 54 54 55 56 57 58 58 58 58 58 58 58 59 58 59 59 60 59 60 60 61 61 61 62 63 64 64 64 64 63
46 47 47 48 47 46 46 46 46 46 46 47 46 47 47 47 48 49 49 49 49 49 50 51 51 51 51 51 50 51 51 51 51 51 51 51 51 52 52 53 54 55 56 56 57 57 58 58 58 58 58 59 59 59 59 60 59 60 60 60 61 61 62 62 63 64 64 64 64
46 47 47 47 46 45 45 46 46 46 46 47 47 47 47 47 48 49 49 50 49 49 50 50 50 50 50 50 50 50 50 51 51 51 51 51 51 51 51 52 53 54 55 56 56 57 57 58 58 58 58 58 58 58 59 59 59 59 59 60 61 61 62 62 63 63 64 64 64
45 46 46 47 46 45 45 45 46 46 46 46 47 47 47 48 48 49 49 50 49 49 50 49 50 50 50 50 50 50 50 50 50 51 51 51 51 51 51 51 52 53 54 55 56 56 57 58 58 58 58 58 58 58 58 59 59 59 59 60 60 61 61 62 62 63 64 64 64
45 45 45 45 45 45 45 45 46 46 46 46 47 47 48 49 49 49 49 50 50 49 49 49 49 49 49 49 50 50 50 50 50 50 50 50 50 50 50 51 51 52 54 55 56 56 57 58 58 58 58 58 57 57 57 57 57 57 58 59 60 60 61 61 62 62 63 64 65
45 45 45 44 44 45 45 45 46 47 47 47 47 47 48 49 49 49 50 50 50 49 49 49 49 49 49 49 49 50 50 50 50 50 50 50 50 50 50 50 51 52 53 55 56 56 57 57 57 57 57 57 57 56 56 56 56 56 57 59 60 60 61 61 61 62 62 63 65
45 45 45 44 44 44 45 45 46 47 47 48 47 47 48 48 49 49 50 50 49 49 49 49 49 49 49 49 49 49 50 50 50 50 50 50 50 50 50 50 51 52 53 54 55 56 57 57 57 57 57 57 56 56 56 56 56 56 57 58 60 60 60 61 61 62 62 63 64
46 46 45 45 44 44 45 45 46 47 47 47 47 47 48 48 49 49 50 50 49 49 49 49 49 49 49 49 49 49 49 49 50 50 49 50 50 50 50 50 50 51 52 54 56 56 57 57 57 57 57 57 56 56 56 56 56 56 56 58 59 60 60 61 61 62 62 63 64
45 45 45 45 44 45 46 46 47 47 47 46 46 47 48 48 49 49 49 49 49 49 48 48 49 49 49 49 49 49 49 49 49 49 49 49 50 50 50 50 50 51 52 53 55 56 56 56 56 56 56 56 56 56 56 56 56 56 57 57 59 60 60 61 61 61 62 62 63
45 45 45 45 44 45 46 47 48 48 48 47 47 47 47 47 48 49 49 48 48 48 48 48 48 48 49 49 49 49 49 49 49 49 49 49 49 49 49 49 50 50 51 52 54 56 56 56 56 56 56 55 55 55 55 55 56 56 57 58 59 60 61 61 61 61 61 62 63
44 44 45 45 45 45 46 47 48 48 48 48 49 48 47 47 48 48 48 48 48 48 48 47 47 48 48 49 49 49 49 49 49 49 49 49 49 49 49 49 49 50 50 51 53 55 56 56 56 56 55 55 55 55 55 55 56 56 57 58 59 60 61 62 62 62 62 62 62
44 44 44 44 44 45 45 46 47 48 48 49 49 49 48 47 48 48 48 48 48 47 47 47 47 47 48 48 49 49 49 48 49 49 49 49 49 49 49 49 49 50 50 51 53 54 56 56 56 55 55 55 55 55 55 55 56 56 57 58 60 61 62 62 62 62 62 62 62
44 44 44 44 44 45 45 46 46 47 48 48 49 49 49 47 47 47 47 48 47 47 47 47 47 47 47 47 48 48 48 48 48 48 48 49 49 49 49 49 50 50 50 51 53 54 55 56 55 55 55 55 55 55 56 56 56 57 57 58 60 61 62 63 63 63 62 62 62
43 43 44 44 45 45 46 46 46 46 47 48 48 48 47 46 46 46 46 47 47 47 47 47 47 47 47 47 47 48 48 48 48 48 48 49 49 49 49 50 50 50 51 52 54 55 55 55 55 55 55 55 55 56 56 57 57 58 58 59 60 61 62 62 63 63 63 62 62
42 43 44 44 45 45 46 46 46 46 47 47 46 46 46 46 46 46 46 46 47 47 47 47 47 47 47 47 47 48 48 48 48 48 48 49 49 49 49 50 50 51 52 53 54 55 55 55 55 55 55 55 55 55 55 56 56 57 58 59 60 61 61 62 63 63 63 63 63
42 43 44 45 45 45 46 46 46 46 46 46 45 45 45 45 45 46 46 47 47 48 47 47 47 47 47 47 47 47 48 48 48 48 48 48 49 49 50 50 51 51 53 54 55 55 55 55 55 55 55 55 55 54 54 54 55 55 56 57 59 60 61 62 62 62 63 63 63
43 43 44 45 45 45 46 46 46 46 46 46 45 45 45 45 45 46 47 48 48 47 47 47 47 47 47 47 47 47 47 48 48 48 48 48 49 49 50 50 51 52 53 55 56 56 56 56 56 56 55 55 54 54 54 54 54 55 55 56 58 59 60 61 62 62 62 63 63
43 43 44 44 45 45 46 46 45 45 45 46 45 45 44 44 45 47 48 48 48 47 47 47 47 47 47 47 47 47 47 47 48 48 48 48 49 49 50 50 51 52 53 54 55 56 56 56 56 56 55 54 54 54 54 54 54 54 55 56 57 58 60 61 62 62 62 63 63
42 43 44 44 44 44 44 44 44 44 45 45 45 45 44 44 45 46 47 47 47 47 47 47 47 47 47 47 47 47 47 47 47 47 48 48 48 49 50 50 51 51 53 54 55 56 56 56 56 55 55 55 54 54 54 54 55 55 55 56 56 57 59 60 61 62 62 63 63
42 43 43 44 44 44 44 44 43 44 44 44 45 45 44 44 44 45 45 46 46 46 46 47 47 47 47 47 47 47 47 47 47 47 47 48 48 49 49 50 50 51 52 54 56 57 58 57 57 56 55 55 55 55 55 56 56 56 56 56 56 57 58 59 61 62 62 63 63
42 42 42 43 43 43 43 43 43 43 43 44 44 45 45 45 45 45 45 45 46 46 46 46 46 47 47 47 47 47 47 47 47 47 47 47 48 49 49 49 50 50 51 53 55 57 58 58 58 57 56 56 56 56 56 56 56 56 56 56 56 56 57 58 60 61 62 62 63
42 42 42 43 43 43 43 43 43 43 43 44 44 44 44 45 45 46 46 46 46 46 46 46 46 47 48 47 47 47 47 46 47 47 47 47 48 48 48 49 49 50 51 54 56 57 58 58 59 58 58 57 56 56 56 56 56 56 56 56 56 56 57 58 59 60 61 62 62
41 42 42 42 42 42 42 43 42 42 42 43 43 44 44 45 45 46 46 47 47 47 47 47 47 47 47 47 46 46 46 46 47 47 47 47 48 48 48 48 49 50 51 54 56 57 58 58 59 59 59 58 57 57 57 57 57 56 56 56 56 57 57 58 59 60 61 61 61
41 41 41 41 42 42 42 42 42 42 42 43 44 44 45 45 45 45 46 47 47 48 48 47 48 47 47 46 46 46 46 46 46 47 47 47 48 48 48 48 48 50 52 55 56 57 58 58 59 59 60 59 58 57 57 57 56 56 56 56 56 57 58 59 59 60 61 61 61
41 41 41 41 41 42 42 42 42 42 43 43 44 44 44 45 45 45 46 47 47 47 48 48 48 47 47 46 46 46 46 46 46 46 47 47 47 47 48 48 48 50 52 55 56 57 58 58 58 59 59 60 58 57 57 57 56 55 55 54 54 54 55 57 58 59 60 61 61
41 41 41 41 41 41 42 42 42 43 43 43 43 44 44 44 45 45 46 47 47 47 48 47 47 47 47 47 47 46 46 46 46 46 46 46 47 47 48 48 48 50 52 54 55 56 57 58 58 59 59 59 58 57 56 56 56 56 55 55 54 53 52 53 56 58 60 60 60
40 40 40 40 41 41 42 42 42 43 43 43 43 43 44 44 45 45 46 47 47 47 47 46 47 47 47 47 47 46 46 46 46 46 46 46 47 47 47 48 48 50 52 54 55 56 57 58 58 58 59 59 58 57 56 56 56 57 57 56 55 54 52 52 53 56 58 60 60
40 40 40 40 40 41 41 42 42 42 42 42 42 43 44 44 45 46 46 47 47 46 46 46 46 47 47 46 46 46 46 46 46 46 47 47 47 47 47 48 48 50 52 54 55 56 56 57 58 58 58 58 57 57 56 56 57 57 57 56 56 55 53 52 52 53 56 59 60
40 40 40 40 40 40 41 41 41 41 41 41 42 43 44 44 45 45 46 47 47 47 47 47 47 47 47 47 46 46 46 47 47 46 46 46 46 47 47 47 48 50 52 54 55 56 56 57 57 58 58 58 57 56 56 57 57 57 56 56 56 55 54 53 53 53 54 57 59
40 39 39 39 40 40 40 40 41 41 41 41 42 43 43 44 44 45 46 48 48 47 47 47 47 48 48 48 47 47 47 47 47 47 46 46 46 46 47 47 48 50 53 54 55 56 56 56 57 57 57 57 56 56 56 56 56 56 55 55 55 55 55 54 54 53 54 55 58
39 39 39 39 39 39 40 40 40 40 40 41 41 42 42 43 44 45 46 48 48 47 47 47 47 47 48 47 48 48 47 47 47 47 47 47 47 46 46 47 48 50 52 54 55 55 56 56 57 57 57 56 55 55 55 56 56 56 55 55 55 55 55 54 54 53 54 55 57
39 39 38 38 39 39 39 39 40 40 40 40 41 42 42 43 44 45 47 48 47 46 46 46 46 47 47 47 47 47 47 47 47 47 48 48 47 46 47 47 48 49 51 53 54 55 55 55 56 57 57 55 54 54 55 55 55 55 55 55 55 55 55 54 54 54 54 54 57
39 39 38 38 38 39 39 39 39 39 40 40 41 41 42 43 44 45 47 48 47 46 46 46 46 46 47 48 48 48 48 48 47 48 48 48 47 47 47 47 48 49 50 52 54 54 55 55 56 57 57 54 54 54 54 54 54 55 55 55 55 55 55 54 54 54 54 55 56
39 39 38 38 38 38 39 39 39 39 40 40 41 41 42 43 44 46 47 48 47 47 47 47 47 47 48 49 48 48 48 48 48 48 48 48 47 48 48 48 48 48 50 52 53 54 54 54 55 56 57 55 54 53 53 53 54 54 55 55 55 55 54 54 54 54 54 56 57
39 39 38 38 38 38 38 38 39 39 40 40 41 41 42 43 45 46 47 48 47 47 47 47 48 48 49 50 48 48 48 48 48 48 48 48 48 49 49 48 48 48 49 51 52 53 54 54 55 56 57 56 54 53 53 53 53 54 54 55 54 54 54 54 54 54 55 56 57
39 39 38 38 38 38 38 38 39 39 40 40 40 41 43 44 45 46 46 47 47 47 48 48 48 48 49 49 48 48 48 48 48 48 48 49 49 49 49 48 48 48 49 50 52 53 53 54 54 56 57 56 55 54 53 53 53 53 53 54 54 54 54 54 54 54 55 56 57
MSLP
1018.48 1018.24 1018.04 1017.76 1017.48 1017.20 1016.92 1016.68 1016.40 1016.16 1015.96 1015.76 1015.52 1015.28 1015.04 1014.88 1014.64 1014.32 1014.04 1013.80 1013.48 1013.16 1012.84 1012.52 1012.20 1011.88 1011.52 1011.16 1010.80 1010.44 1010.00 1009.64 1009.28 1009.00 1008.72 1008.48 1008.20 1007.80 1007.36 1006.88 1006.44 1006.08 1005.80 1005.52 1005.20 1004.92 1004.68 1004.56 1004.48 1004.40 1004.20 1004.04 1003.92 1003.76 1003.64 1003.56 1003.44 1003.36 1003.24 1003.20 1003.04 1002.80 1002.56 1002.40 1002.64 1002.92 1003.20 1003.44 1003.64
1018.32 1018.08 1017.80 1017.56 1017.28 1017.00 1016.76 1016.48 1016.20 1016.00 1015.80 1015.64 1015.40 1015.20 1014.92 1014.72 1014.44 1014.16 1013.84 1013.56 1013.28 1013.00 1012.72 1012.36 1012.08 1011.76 1011.44 1011.04 1010.64 1010.24 1009.84 1009.48 1009.20 1008.92 1008.72 1008.44 1008.08 1007.64 1007.12 1006.72 1006.36 1006.08 1005.80 1005.48 1005.12 1004.76 1004.48 1004.32 1004.20 1004.08 1003.92 1003.76 1003.60 1003.48 1003.36 1003.24 1003.20 1003.08 1003.00 1002.92 1002.80 1002.64 1002.44 1002.24 1002.36 1002.56 1002.84 1003.04 1003.28
1018.16 1017.84 1017.60 1017.32 1017.08 1016.88 1016.64 1016.36 1016.12 1015.92 1015.76 1015.48 1015.28 1015.04 1014.80 1014.52 1014.28 1013.96 1013.64 1013.32 1013.04 1012.76 1012.52 1012.20 1011.92 1011.60 1011.20 1010.80 1010.44 1010.08 1009.76 1009.48 1009.20 1008.96 1008.68 1008.36 1007.92 1007.36 1006.88 1006.48 1006.16 1005.92 1005.64 1005.24 1004.84 1004.48 1004.24 1004.08 1003.96 1003.80 1003.64 1003.48 1003.40 1003.28 1003.16 1003.00 1002.92 1002.88 1002.76 1002.68 1002.60 1002.48 1002.28 1002.08 1002.08 1002.28 1002.52 1002.76 1002.92
1018.00 1017.72 1017.48 1017.20 1016.92 1016.72 1016.52 1016.32 1016.08 1015.84 1015.64 1015.36 1015.12 1014.88 1014.64 1014.40 1014.08 1013.76 1013.40 1013.04 1012.80 1012.56 1012.28 1012.00 1011.72 1011.40 1011.04 1010.64 1010.24 1009.92 1009.64 1009.44 1009.20 1008.92 1008.56 1008.16 1007.68 1007.20 1006.68 1006.32 1006.04 1005.80 1005.48 1005.12 1004.72 1004.36 1004.08 1003.92 1003.76 1003.60 1003.48 1003.36 1003.20 1003.08 1002.96 1002.80 1002.72 1002.64 1002.48 1002.40 1002.32 1002.20 1001.96 1001.76 1001.80 1002.00 1002.20 1002.36 1002.56
1017.84 1017.60 1017.36 1017.04 1016.76 1016.56 1016.36 1016.16 1015.92 1015.72 1015.48 1015.28 1015.04 1014.72 1014.44 1014.16 1013.84 1013.48 1013.20 1012.88 1012.60 1012.32 1012.08 1011.84 1011.60 1011.28 1010.92 1010.56 1010.20 1009.80 1009.48 1009.24 1009.00 1008.68 1008.36 1007.92 1007.48 1007.00 1006.56 1006.20 1005.84 1005.56 1005.24 1004.92 1004.52 1004.24 1003.96 1003.76 1003.56 1003.40 1003.24 1003.12 1002.96 1002.84 1002.72 1002.64 1002.48 1002.36 1002.20 1002.12 1002.00 1001.92 1001.76 1001.56 1001.52 1001.64 1001.80 1002.00 1002.20
1017.68 1017.40 1017.16 1016.92 1016.60 1016.36 1016.20 1016.00 1015.80 1015.60 1015.36 1015.16 1014.92 1014.60 1014.24 1013.92 1013.60 1013.24 1012.96 1012.68 1012.36 1012.08 1011.84 1011.64 1011.40 1011.08 1010.76 1010.44 1010.08 1009.68 1009.36 1009.00 1008.72 1008.40 1008.04 1007.64 1007.20 1006.84 1006.48 1006.08 1005.60 1005.20 1004.88 1004.64 1004.36 1004.04 1003.76 1003.64 1003.40 1003.20 1003.04 1002.84 1002.68 1002.52 1002.44 1002.36 1002.24 1002.08 1001.96 1001.88 1001.72 1001.60 1001.48 1001.36 1001.28 1001.36 1001.48 1001.64 1001.84
1017.56 1017.24 1016.96 1016.68 1016.48 1016.24 1016.04 1015.80 1015.64 1015.44 1015.20 1014.96 1014.72 1014.40 1014.08 1013.72 1013.40 1013.04 1012.72 1012.44 1012.16 1011.92 1011.64 1011.40 1011.20 1010.92 1010.60 1010.28 1009.92 1009.48 1009.12 1008.76 1008.36 1008.08 1007.72 1007.36 1006.96 1006.64 1006.36 1005.92 1005.44 1004.92 1004.56 1004.32 1004.08 1003.84 1003.60 1003.40 1003.20 1002.92 1002.72 1002.56 1002.40 1002.20 1002.08 1002.04 1001.96 1001.88 1001.76 1001.60 1001.48 1001.36 1001.20 1001.08 1001.04 1001.04 1001.20 1001.32 1001.52
1017.40 1017.12 1016.84 1016.56 1016.32 1016.08 1015.92 1015.68 1015.48 1015.28 1015.04 1014.84 1014.56 1014.20 1013.84 1013.48 1013.16 1012.76 1012.48 1012.20 1011.92 1011.68 1011.40 1011.16 1010.92 1010.64 1010.36 1010.08 1009.72 1009.32 1008.92 1008.52 1008.12 1007.76 1007.36 1007.04 1006.76 1006.44 1006.16 1005.76 1005.36 1004.84 1004.40 1004.08 1003.84 1003.60 1003.36 1003.20 1002.96 1002.72 1002.48 1002.36 1002.16 1001.96 1001.76 1001.72 1001.68 1001.64 1001.56 1001.40 1001.20 1001.04 1000.92 1000.88 1000.84 1000.88 1000.92 1001.04 1001.20
1017.24 1016.92 1016.64 1016.36 1016.16 1015.92 1015.76 1015.52 1015.36 1015.16 1014.92 1014.64 1014.32 1013.96 1013.64 1013.32 1012.92 1012.56 1012.24 1011.96 1011.68 1011.48 1011.20 1010.92 1010.64 1010.36 1010.08 1009.80 1009.48 1009.08 1008.72 1008.32 1007.88 1007.48 1007.16 1006.88 1006.64 1006.32 1006.00 1005.64 1005.20 1004.68 1004.20 1003.88 1003.60 1003.36 1003.12 1002.92 1002.68 1002.44 1002.24 1002.08 1001.92 1001.72 1001.56 1001.48 1001.44 1001.40 1001.36 1001.20 1000.96 1000.76 1000.60 1000.60 1000.60 1000.56 1000.56 1000.64 1000.88
1017.04 1016.76 1016.48 1016.20 1015.96 1015.76 1015.60 1015.40 1015.20 1014.96 1014.72 1014.40 1014.08 1013.76 1013.40 1013.04 1012.68 1012.36 1012.08 1011.76 1011.48 1011.28 1011.04 1010.80 1010.52 1010.24 1009.92 1009.60 1009.24 1008.92 1008.56 1008.16 1007.72 1007.32 1007.00 1006.76 1006.48 1006.20 1005.84 1005.48 1005.04 1004.52 1004.08 1003.64 1003.36 1003.08 1002.84 1002.64 1002.36 1002.16 1001.96 1001.84 1001.76 1001.60 1001.48 1001.40 1001.36 1001.32 1001.20 1001.00 1000.76 1000.48 1000.32 1000.20 1000.24 1000.20 1000.16 1000.20 1000.36
1016.88 1016.60 1016.36 1016.16 1015.88 1015.64 1015.44 1015.24 1015.00 1014.76 1014.48 1014.20 1013.84 1013.48 1013.20 1012.84 1012.52 1012.20 1011.88 1011.56 1011.36 1011.12 1010.92 1010.68 1010.48 1010.20 1009.88 1009.52 1009.16 1008.76 1008.36 1007.96 1007.56 1007.16 1006.84 1006.56 1006.36 1006.00 1005.64 1005.24 1004.80 1004.36 1003.84 1003.40 1003.04 1002.76 1002.52 1002.24 1002.04 1001.80 1001.64 1001.56 1001.48 1001.44 1001.36 1001.20 1001.16 1001.04 1000.92 1000.72 1000.44 1000.20 999.96 999.76 999.84 999.88 999.80 999.76 999.88
1016.68 1016.40 1016.16 1015.92 1015.76 1015.52 1015.36 1015.12 1014.88 1014.56 1014.28 1013.92 1013.64 1013.32 1013.00 1012.64 1012.36 1012.00 1011.68 1011.36 1011.16 1010.92 1010.72 1010.48 1010.32 1010.04 1009.72 1009.36 1009.04 1008.64 1008.20 1007.76 1007.36 1006.96 1006.64 1006.36 1006.08 1005.72 1005.32 1004.92 1004.52 1004.08 1003.64 1003.20 1002.80 1002.48 1002.20 1001.92 1001.68 1001.48 1001.36 1001.32 1001.32 1001.28 1001.20 1001.04 1000.92 1000.76 1000.56 1000.36 1000.08 999.88 999.64 999.44 999.48 999.48 999.48 999.36 999.48
1016.52 1016.28 1016.04 1015.80 1015.60 1015.40 1015.20 1014.96 1014.68 1014.40 1014.08 1013.76 1013.48 1013.16 1012.84 1012.48 1012.12 1011.80 1011.48 1011.20 1010.96 1010.72 1010.48 1010.32 1010.12 1009.92 1009.60 1009.20 1008.84 1008.44 1008.04 1007.60 1007.20 1006.80 1006.48 1006.16 1005.80 1005.48 1005.04 1004.68 1004.32 1003.92 1003.48 1002.96 1002.56 1002.24 1001.92 1001.64 1001.40 1001.20 1001.12 1001.08 1001.08 1001.08 1001.04 1000.96 1000.84 1000.64 1000.36 1000.08 999.76 999.56 999.36 999.20 999.12 999.16 999.16 999.04 999.08
1016.36 1016.12 1015.92 1015.68 1015.48 1015.28 1015.04 1014.80 1014.48 1014.20 1013.92 1013.64 1013.32 1013.00 1012.64 1012.32 1011.96 1011.64 1011.36 1011.08 1010.80 1010.56 1010.36 1010.12 1009.92 1009.72 1009.44 1009.08 1008.68 1008.28 1007.88 1007.48 1007.08 1006.68 1006.36 1006.00 1005.64 1005.28 1004.88 1004.48 1004.08 1003.72 1003.28 1002.80 1002.36 1001.96 1001.68 1001.48 1001.24 1001.04 1000.92 1000.92 1000.92 1000.92 1000.96 1000.92 1000.76 1000.56 1000.24 999.92 999.52 999.24 999.04 998.92 998.80 998.80 998.84 998.80 998.76
1016.20 1016.00 1015.76 1015.56 1015.36 1015.20 1014.96 1014.64 1014.36 1014.04 1013.76 1013.48 1013.16 1012.84 1012.52 1012.20 1011.80 1011.48 1011.20 1010.92 1010.64 1010.36 1010.16 1009.92 1009.68 1009.48 1009.20 1008.88 1008.48 1008.08 1007.68 1007.28 1006.92 1006.52 1006.16 1005.76 1005.44 1005.04 1004.64 1004.20 1003.84 1003.48 1003.04 1002.64 1002.20 1001.76 1001.40 1001.20 1001.00 1000.88 1000.76 1000.76 1000.76 1000.80 1000.84 1000.80 1000.72 1000.48 1000.16 999.76 999.32 998.96 998.72 998.60 998.48 998.48 998.52 998.56 998.56
1016.12 1015.88 1015.64 1015.44 1015.24 1015.04 1014.80 1014.56 1014.24 1013.92 1013.64 1013.32 1012.96 1012.68 1012.36 1012.00 1011.68 1011.36 1011.04 1010.76 1010.44 1010.16 1009.92 1009.76 1009.48 1009.20 1008.92 1008.60 1008.24 1007.88 1007.48 1007.04 1006.64 1006.32 1005.96 1005.60 1005.20 1004.76 1004.36 1004.00 1003.64 1003.28 1002.92 1002.48 1002.00 1001.52 1001.12 1000.84 1000.68 1000.60 1000.60 1000.64 1000.64 1000.64 1000.64 1000.64 1000.52 1000.32 999.92 999.52 999.12 998.72 998.40 998.20 998.12 998.16 998.24 998.40 998.36
1016.04 1015.76 1015.52 1015.36 1015.16 1014.92 1014.64 1014.36 1014.12 1013.80 1013.48 1013.20 1012.84 1012.52 1012.20 1011.88 1011.56 1011.24 1010.92 1010.64 1010.28 1009.96 1009.68 1009.48 1009.24 1009.00 1008.68 1008.32 1007.96 1007.64 1007.24 1006.84 1006.44 1006.08 1005.76 1005.40 1005.04 1004.64 1004.20 1003.80 1003.48 1003.08 1002.76 1002.32 1001.76 1001.24 1000.80 1000.52 1000.40 1000.36 1000.36 1000.40 1000.40 1000.40 1000.40 1000.36 1000.24 1000.04 999.68 999.28 998.88 998.48 998.12 997.92 997.80 997.84 998.00 998.20 998.20
1015.92 1015.68 1015.44 1015.20 1014.96 1014.76 1014.48 1014.20 1013.96 1013.68 1013.40 1013.08 1012.76 1012.40 1012.08 1011.80 1011.48 1011.20 1010.80 1010.48 1010.16 1009.80 1009.48 1009.20 1008.96 1008.72 1008.44 1008.08 1007.72 1007.36 1007.04 1006.64 1006.24 1005.88 1005.52 1005.20 1004.80 1004.44 1004.04 1003.60 1003.24 1002.88 1002.48 1002.00 1001.44 1000.92 1000.52 1000.28 1000.20 1000.20 1000.20 1000.16 1000.20 1000.16 1000.12 1000.08 999.96 999.76 999.40 999.00 998.60 998.24 997.92 997.64 997.48 997.52 997.68 997.88 997.96
1015.80 1015.56 1015.32 1015.04 1014.84 1014.60 1014.32 1014.08 1013.80 1013.52 1013.24 1012.92 1012.64 1012.32 1012.00 1011.72 1011.44 1011.08 1010.72 1010.36 1010.04 1009.64 1009.32 1009.00 1008.68 1008.40 1008.12 1007.80 1007.48 1007.20 1006.84 1006.48 1006.08 1005.68 1005.36 1005.00 1004.60 1004.20 1003.80 1003.36 1003.00 1002.56 1002.08 1001.56 1001.00 1000.52 1000.24 1000.08 1000.08 1000.08 1000.04 999.96 999.92 999.88 999.84 999.80 999.76 999.56 999.24 998.80 998.36 997.92 997.64 997.36 997.20 997.20 997.36 997.52 997.72
1015.72 1015.48 1015.20 1014.92 1014.68 1014.44 1014.16 1013.92 1013.64 1013.36 1013.08 1012.80 1012.52 1012.20 1011.92 1011.60 1011.28 1011.00 1010.64 1010.24 1009.88 1009.48 1009.16 1008.84 1008.52 1008.20 1007.88 1007.56 1007.24 1006.96 1006.64 1006.36 1006.00 1005.64 1005.32 1004.92 1004.48 1004.08 1003.64 1003.24 1002.76 1002.28 1001.72 1001.12 1000.64 1000.32 1000.16 1000.08 1000.00 999.92 999.80 999.76 999.76 999.72 999.68 999.64 999.64 999.48 999.20 998.76 998.24 997.76 997.32 997.04 996.92 996.92 997.04 997.24 997.48
1015.60 1015.32 1015.04 1014.76 1014.52 1014.28 1014.04 1013.72 1013.48 1013.20 1012.92 1012.64 1012.40 1012.08 1011.76 1011.48 1011.20 1010.92 1010.56 1010.12 1009.72 1009.36 1009.04 1008.76 1008.40 1008.08 1007.76 1007.40 1007.12 1006.80 1006.52 1006.24 1006.00 1005.68 1005.36 1004.92 1004.44 1003.96 1003.56 1003.16 1002.64 1002.08 1001.48 1000.92 1000.48 1000.20 1000.08 1000.00 999.88 999.76 999.64 999.64 999.60 999.56 999.52 999.52 999.52 999.36 999.08 998.68 998.16 997.60 997.12 996.80 996.64 996.64 996.76 996.92 997.20
1015.36 1015.12 1014.88 1014.64 1014.40 1014.12 1013.84 1013.56 1013.32 1013.04 1012.76 1012.48 1012.20 1011.92 1011.64 1011.36 1011.04 1010.76 1010.40 1010.04 1009.64 1009.28 1008.96 1008.64 1008.32 1008.00 1007.64 1007.36 1007.04 1006.76 1006.44 1006.16 1005.92 1005.68 1005.36 1004.88 1004.36 1003.88 1003.48 1003.04 1002.60 1002.08 1001.48 1000.92 1000.52 1000.20 999.92 999.76 999.72 999.64 999.56 999.48 999.44 999.40 999.36 999.36 999.32 999.12 998.80 998.36 997.92 997.40 996.92 996.60 996.40 996.36 996.48 996.60 996.84
1015.20 1015.00 1014.76 1014.48 1014.20 1013.92 1013.64 1013.40 1013.16 1012.92 1012.64 1012.36 1012.08 1011.76 1011.52 1011.24 1010.92 1010.60 1010.24 1009.92 1009.56 1009.20 1008.88 1008.52 1008.20 1007.88 1007.60 1007.32 1007.04 1006.72 1006.36 1006.08 1005.76 1005.52 1005.20 1004.72 1004.24 1003.76 1003.32 1002.92 1002.48 1002.00 1001.48 1000.92 1000.52 1000.20 999.92 999.72 999.60 999.52 999.48 999.40 999.32 999.20 999.16 999.08 999.00 998.76 998.44 997.96 997.60 997.16 996.76 996.44 996.24 996.12 996.12 996.24 996.48
1015.08 1014.84 1014.56 1014.32 1014.04 1013.80 1013.52 1013.28 1013.00 1012.76 1012.48 1012.20 1011.92 1011.64 1011.36 1011.08 1010.76 1010.48 1010.16 1009.80 1009.48 1009.08 1008.76 1008.40 1008.12 1007.76 1007.48 1007.20 1006.96 1006.68 1006.36 1006.08 1005.76 1005.40 1005.00 1004.48 1004.08 1003.64 1003.20 1002.80 1002.40 1001.92 1001.44 1000.92 1000.48 1000.12 999.84 999.64 999.48 999.36 999.28 999.20 999.08 998.96 998.88 998.76 998.60 998.32 997.92 997.56 997.24 996.92 996.60 996.32 996.08 995.88 995.80 995.88 996.08
1014.92 1014.68 1014.44 1014.20 1013.92 1013.64 1013.40 1013.12 1012.88 1012.64 1012.36 1012.08 1011.76 1011.52 1011.24 1010.92 1010.64 1010.36 1010.08 1009.68 1009.36 1009.00 1008.64 1008.32 1008.00 1007.68 1007.36 1007.08 1006.84 1006.60 1006.36 1006.08 1005.80 1005.44 1004.92 1004.36 1003.92 1003.56 1003.20 1002.80 1002.36 1001.92 1001.48 1001.00 1000.48 1000.08 999.76 999.52 999.36 999.20 999.04 998.92 998.76 998.64 998.48 998.28 998.08 997.76 997.48 997.20 996.96 996.68 996.44 996.16 995.84 995.64 995.52 995.52 995.72
1014.76 1014.52 1014.32 1014.04 1013.76 1013.52 1013.24 1013.00 1012.76 1012.48 1012.20 1011.88 1011.64 1011.36 1011.08 1010.76 1010.48 1010.20 1009.92 1009.56 1009.20 1008.88 1008.56 1008.20 1007.92 1007.60 1007.32 1007.04 1006.76 1006.48 1006.20 1005.96 1005.76 1005.40 1004.96 1004.44 1004.00 1003.60 1003.20 1002.80 1002.36 1001.92 1001.48 1000.92 1000.48 1000.04 999.68 999.40 999.20 999.00 998.80 998.64 998.40 998.16 997.92 997.72 997.52 997.32 997.12 996.92 996.68 996.48 996.28 996.00 995.68 995.48 995.36 995.36 995.48
1014.64 1014.36 1014.12 1013.84 1013.64 1013.40 1013.16 1012.84 1012.60 1012.32 1012.04 1011.76 1011.48 1011.24 1010.96 1010.64 1010.36 1010.08 1009.76 1009.44 1009.08 1008.76 1008.44 1008.12 1007.80 1007.52 1007.24 1006.96 1006.72 1006.40 1006.12 1005.84 1005.56 1005.24 1004.92 1004.56 1004.12 1003.64 1003.20 1002.72 1002.28 1001.84 1001.36 1000.84 1000.36 999.92 999.60 999.28 999.04 998.76 998.52 998.36 998.16 997.92 997.64 997.36 997.20 997.04 996.84 996.64 996.44 996.28 996.08 995.84 995.56 995.32 995.20 995.16 995.28
1014.48 1014.24 1014.00 1013.76 1013.52 1013.28 1013.00 1012.68 1012.44 1012.16 1011.92 1011.64 1011.40 1011.12 1010.80 1010.48 1010.20 1009.92 1009.64 1009.28 1008.92 1008.64 1008.32 1008.04 1007.68 1007.40 1007.16 1006.92 1006.64 1006.36 1006.04 1005.72 1005.44 1005.12 1004.76 1004.40 1004.00 1003.52 1003.04 1002.60 1002.16 1001.72 1001.20 1000.64 1000.20 999.80 999.44 999.16 998.88 998.60 998.36 998.12 997.92 997.72 997.44 997.20 997.04 996.84 996.68 996.52 996.32 996.08 995.88 995.64 995.44 995.20 995.04 995.04 995.12
1014.36 1014.12 1013.88 1013.68 1013.44 1013.12 1012.84 1012.60 1012.36 1012.08 1011.76 1011.48 1011.20 1010.92 1010.64 1010.40 1010.08 1009.76 1009.48 1009.12 1008.80 1008.52 1008.24 1007.92 1007.60 1007.32 1007.04 1006.80 1006.56 1006.24 1005.92 1005.64 1005.32 1004.96 1004.64 1004.24 1003.80 1003.36 1002.88 1002.48 1002.04 1001.56 1001.00 1000.48 1000.00 999.64 999.32 999.04 998.72 998.40 998.12 997.92 997.76 997.52 997.28 997.04 996.88 996.76 996.64 996.48 996.32 996.08 995.76 995.48 995.28 995.08 994.96 994.92 995.00
1014.20 1014.00 1013.76 1013.56 1013.28 1013.04 1012.76 1012.48 1012.20 1011.92 1011.64 1011.36 1011.04 1010.80 1010.52 1010.24 1009.92 1009.64 1009.36 1009.04 1008.72 1008.44 1008.16 1007.88 1007.56 1007.24 1007.00 1006.76 1006.48 1006.20 1005.88 1005.52 1005.20 1004.92 1004.52 1004.12 1003.68 1003.24 1002.80 1002.36 1001.92 1001.44 1000.88 1000.36 999.88 999.48 999.16 998.80 998.48 998.16 997.84 997.56 997.40 997.20 997.04 996.88 996.76 996.64 996.52 996.44 996.36 996.20 995.92 995.64 995.28 995.04 994.92 994.92 994.96
1014.04 1013.84 1013.64 1013.40 1013.20 1012.92 1012.64 1012.32 1012.04 1011.76 1011.48 1011.20 1010.96 1010.72 1010.44 1010.12 1009.84 1009.52 1009.20 1008.92 1008.64 1008.28 1007.96 1007.72 1007.48 1007.20 1006.88 1006.64 1006.36 1006.12 1005.80 1005.48 1005.12 1004.80 1004.48 1004.16 1003.72 1003.28 1002.84 1002.36 1001.88 1001.36 1000.84 1000.32 999.76 999.36 998.92 998.52 998.20 997.92 997.60 997.32 997.12 996.96 996.80 996.68 996.56 996.44 996.32 996.20 996.20 996.12 996.04 995.80 995.48 995.16 994.92 994.88 994.92
1013.92 1013.72 1013.52 1013.32 1013.08 1012.80 1012.48 1012.20 1011.92 1011.64 1011.40 1011.12 1010.92 1010.64 1010.36 1010.00 1009.68 1009.40 1009.08 1008.76 1008.48 1008.16 1007.88 1007.64 1007.36 1007.04 1006.72 1006.44 1006.20 1005.92 1005.64 1005.40 1005.16 1004.88 1004.60 1004.24 1003.80 1003.32 1002.84 1002.36 1001.88 1001.36 1000.84 1000.28 999.72 999.20 998.72 998.24 997.92 997.68 997.48 997.20 996.96 996.80 996.68 996.52 996.36 996.20 996.08 996.00 995.96 995.96 995.96 995.88 995.68 995.40 995.12 994.92 994.92
1013.76 1013.56 1013.36 1013.20 1012.96 1012.68 1012.36 1012.08 1011.80 1011.56 1011.32 1011.04 1010.76 1010.48 1010.20 1009.88 1009.56 1009.24 1008.92 1008.64 1008.36 1008.08 1007.80 1007.56 1007.32 1006.96 1006.64 1006.36 1006.08 1005.80 1005.56 1005.32 1005.08 1004.84 1004.56 1004.24 1003.80 1003.36 1002.84 1002.36 1001.92 1001.40 1000.88 1000.32 999.72 999.16 998.60 998.04 997.72 997.48 997.36 997.12 996.92 996.72 996.60 996.40 996.24 996.08 995.96 995.88 995.80 995.84 995.84 995.80 995.80 995.64 995.40 995.12 994.96
1013.64 1013.44 1013.24 1013.04 1012.80 1012.56 1012.28 1012.00 1011.72 1011.48 1011.20 1010.92 1010.64 1010.36 1010.08 1009.76 1009.48 1009.20 1008.84 1008.52 1008.24 1007.96 1007.68 1007.48 1007.20 1006.92 1006.64 1006.32 1006.08 1005.80 1005.52 1005.20 1005.04 1004.80 1004.56 1004.20 1003.80 1003.36 1002.88 1002.44 1001.96 1001.48 1001.00 1000.40 999.80 999.20 998.64 998.08 997.68 997.44 997.20 997.04 996.84 996.68 996.52 996.36 996.20 996.04 995.92 995.84 995.76 995.76 995.76 995.76 995.76 995.76 995.60 995.36 995.04
1013.48 1013.32 1013.12 1012.92 1012.64 1012.40 1012.16 1011.92 1011.64 1011.36 1011.08 1010.80 1010.52 1010.24 1009.96 1009.72 1009.44 1009.12 1008.76 1008.40 1008.08 1007.80 1007.56 1007.36 1007.08 1006.84 1006.52 1006.24 1006.00 1005.76 1005.48 1005.24 1005.00 1004.76 1004.56 1004.24 1003.88 1003.36 1002.88 1002.44 1001.96 1001.56 1001.08 1000.52 999.92 999.36 998.76 998.20 997.76 997.40 997.16 996.92 996.76 996.64 996.48 996.36 996.16 996.08 995.96 995.88 995.76 995.76 995.76 995.72 995.72 995.72 995.64 995.44 995.12
1013.36 1013.20 1013.04 1012.80 1012.56 1012.32 1012.08 1011.80 1011.56 1011.32 1011.04 1010.76 1010.44 1010.16 1009.92 1009.64 1009.36 1009.04 1008.68 1008.32 1007.96 1007.72 1007.48 1007.20 1006.96 1006.72 1006.44 1006.16 1005.84 1005.64 1005.48 1005.28 1005.04 1004.76 1004.52 1004.28 1003.92 1003.44 1002.92 1002.44 1002.00 1001.56 1001.12 1000.60 1000.04 999.48 998.92 998.36 997.80 997.36 997.04 996.92 996.76 996.64 996.48 996.36 996.20 996.08 995.96 995.92 995.84 995.80 995.76 995.68 995.64 995.64 995.56 995.36 995.08
1013.20 1013.04 1012.88 1012.68 1012.44 1012.20 1011.92 1011.72 1011.48 1011.20 1010.96 1010.64 1010.36 1010.08 1009.84 1009.56 1009.24 1008.92 1008.56 1008.20 1007.92 1007.64 1007.40 1007.12 1006.88 1006.64 1006.36 1006.08 1005.76 1005.60 1005.48 1005.32 1005.08 1004.84 1004.56 1004.28 1003.92 1003.48 1002.96 1002.48 1002.08 1001.64 1001.16 1000.64 1000.08 999.52 999.04 998.56 997.92 997.44 997.08 996.96 996.84 996.72 996.60 996.48 996.28 996.08 995.96 995.92 995.88 995.80 995.72 995.64 995.56 995.52 995.44 995.28 995.04
1013.00 1012.88 1012.72 1012.56 1012.36 1012.08 1011.84 1011.64 1011.36 1011.12 1010.84 1010.56 1010.24 1010.00 1009.76 1009.48 1009.16 1008.84 1008.48 1008.20 1007.92 1007.64 1007.36 1007.04 1006.76 1006.52 1006.28 1006.00 1005.76 1005.56 1005.36 1005.24 1005.12 1004.92 1004.60 1004.32 1004.00 1003.60 1003.04 1002.56 1002.12 1001.68 1001.20 1000.68 1000.08 999.52 999.04 998.64 998.08 997.60 997.28 997.08 996.96 996.88 996.72 996.56 996.36 996.20 996.00 995.92 995.84 995.76 995.68 995.56 995.48 995.40 995.28 995.12 994.92
1012.84 1012.68 1012.52 1012.40 1012.20 1011.96 1011.72 1011.52 1011.28 1011.04 1010.76 1010.44 1010.16 1009.88 1009.64 1009.40 1009.08 1008.76 1008.44 1008.16 1007.92 1007.64 1007.32 1007.00 1006.72 1006.44 1006.16 1005.92 1005.68 1005.48 1005.28 1005.16 1005.04 1004.92 1004.64 1004.36 1004.04 1003.64 1003.16 1002.68 1002.20 1001.72 1001.24 1000.68 1000.08 999.56 999.12 998.76 998.28 997.76 997.40 997.20 997.04 996.92 996.80 996.64 996.48 996.28 996.08 995.92 995.80 995.76 995.68 995.52 995.40 995.24 995.08 994.92 994.76
1012.64 1012.48 1012.36 1012.20 1012.04 1011.84 1011.64 1011.36 1011.16 1010.88 1010.60 1010.36 1010.08 1009.84 1009.60 1009.32 1009.00 1008.68 1008.36 1008.08 1007.84 1007.56 1007.28 1006.96 1006.64 1006.36 1006.08 1005.84 1005.60 1005.36 1005.20 1005.00 1004.92 1004.80 1004.64 1004.36 1004.04 1003.64 1003.20 1002.76 1002.28 1001.76 1001.24 1000.72 1000.20 999.68 999.28 998.92 998.48 997.96 997.48 997.24 997.04 996.96 996.88 996.72 996.48 996.32 996.16 995.96 995.80 995.72 995.64 995.48 995.32 995.12 994.92 994.68 994.48
1012.48 1012.32 1012.20 1012.04 1011.84 1011.64 1011.48 1011.24 1010.96 1010.68 1010.44 1010.20 1010.00 1009.76 1009.48 1009.20 1008.92 1008.64 1008.36 1008.08 1007.80 1007.52 1007.20 1006.92 1006.56 1006.24 1006.04 1005.80 1005.60 1005.36 1005.08 1004.88 1004.72 1004.64 1004.48 1004.24 1003.96 1003.64 1003.24 1002.84 1002.36 1001.84 1001.32 1000.80 1000.36 999.88 999.44 999.04 998.56 998.04 997.60 997.32 997.08 996.96 996.84 996.68 996.48 996.32 996.16 995.96 995.76 995.60 995.48 995.36 995.16 994.96 994.72 994.52 994.32
Wind_Speed
7 7 6 6 5 5 5 4 5 5 5 5 6 6 6 6 7 7 7 7 7 6 7 8 9 10 12 15 16 17 16 15 15 16 17 19 19 19 18 15 13 11 11 11 10 9 8 8 8 7 6 5 5 5 5 5 6 7 7 8 9 11 14 13 12 13 13 13 10
8 8 7 7 6 5 5 5 5 6 6 6 6 6 6 6 6 7 8 8 7 7 7 7 9 12 14 17 17 16 15 14 15 16 17 18 19 19 17 13 11 11 12 12 10 8 6 6 6 6 5 5 5 5 5 6 6 6 7 9 9 10 11 11 11 13 13 13 11
8 8 7 7 6 6 5 5 6 6 7 7 6 6 6 6 6 7 8 8 8 8 7 7 9 12 15 17 15 14 13 13 14 15 15 15 17 17 15 11 11 12 12 10 8 6 5 5 5 5 5 4 5 6 6 7 7 7 7 8 8 9 10 9 10 11 11 10 12
9 8 8 8 8 8 7 6 7 8 8 7 7 7 7 7 7 7 8 9 9 9 8 8 9 11 13 14 14 14 13 14 15 15 15 15 16 17 15 12 12 12 12 11 9 8 7 6 5 5 5 6 7 7 6 6 7 6 6 6 7 8 9 8 8 8 9 9 10
9 8 8 8 9 9 8 7 8 9 8 7 7 7 7 7 7 8 8 9 9 8 8 9 9 10 11 13 15 16 16 16 15 14 13 14 16 16 16 13 12 12 12 11 11 10 9 8 6 5 5 6 5 6 6 7 8 7 6 5 5 7 8 8 7 7 8 7 8
9 9 9 9 9 9 8 8 9 9 8 7 8 8 8 8 8 8 9 10 9 10 10 10 10 11 12 14 16 16 15 15 14 13 13 14 15 16 16 16 14 12 12 11 11 11 10 8 6 5 5 5 5 6 8 9 8 7 7 6 5 6 7 8 7 7 7 8 10
9 9 10 10 10 9 9 9 9 9 8 8 9 11 11 11 11 12 12 12 10 9 9 8 9 11 12 14 15 15 14 13 13 14 14 14 14 15 17 17 16 14 12 12 12 11 9 8 6 5 5 5 5 6 8 8 7 7 7 8 6 5 6 9 8 7 8 10 12
8 9 10 10 10 10 10 10 9 9 8 7 9 12 13 13 14 14 13 12 10 9 8 7 9 12 14 14 15 15 15 14 14 13 13 13 15 16 17 18 18 16 14 12 12 11 9 7 5 5 5 5 5 5 7 8 9 10 10 10 8 6 7 9 9 9 11 14 14
8 9 9 10 10 10 10 10 10 10 9 10 11 12 13 14 14 14 13 11 10 9 8 8 10 13 15 16 16 15 14 13 13 13 13 13 14 15 16 16 17 16 15 13 12 11 10 7 5 5 5 4 4 5 6 8 11 12 13 12 10 8 8 9 11 12 13 15 17
8 9 9 9 10 10 10 10 10 10 11 11 12 13 13 14 14 13 11 9 9 9 9 9 10 12 14 16 15 15 14 13 12 12 13 13 14 15 15 14 15 16 15 13 12 11 10 8 6 6 5 5 6 6 7 9 12 14 14 12 11 10 10 10 13 14 15 16 18
9 9 9 9 10 10 10 10 10 10 10 10 11 12 12 13 13 12 11 10 10 10 10 9 10 12 13 13 14 14 14 13 12 12 12 13 14 14 15 14 15 16 16 15 12 10 9 7 7 7 8 7 7 7 8 9 11 14 16 15 14 13 12 11 13 14 15 16 18
10 10 9 9 10 10 9 9 9 9 10 10 11 11 11 11 12 12 12 11 11 11 10 9 10 11 12 11 12 13 13 13 13 13 12 13 14 15 15 15 16 17 17 16 14 11 9 8 8 8 9 9 6 6 7 9 11 14 16 18 17 15 13 12 12 13 13 15 16
10 10 10 10 10 10 9 9 8 8 9 10 10 10 10 10 12 12 12 12 11 10 9 9 9 10 10 11 12 13 13 13 13 13 13 13 14 15 16 16 17 18 18 17 14 12 10 9 9 9 9 9 7 6 7 8 11 13 16 18 18 16 13 12 12 13 13 15 15
10 10 10 10 10 9 9 9 8 8 8 9 9 9 10 10 11 11 11 11 11 10 9 9 8 9 9 11 12 13 14 14 14 14 14 14 15 16 16 16 18 18 18 17 15 14 12 11 10 9 9 8 7 7 7 8 11 13 16 18 19 17 15 13 12 13 14 16 15
10 10 10 10 10 9 9 9 8 8 8 9 9 9 9 9 9 10 10 10 10 10 8 8 8 9 10 12 13 14 15 14 14 14 14 15 17 17 17 17 18 19 20 20 19 16 14 12 11 9 8 6 6 6 7 9 11 13 16 19 19 17 15 13 12 13 14 17 16
10 10 10 10 10 9 9 8 7 7 8 9 9 9 9 8 9 9 10 11 10 9 8 8 9 9 10 12 13 14 14 14 13 13 14 15 17 18 18 18 18 19 21 22 22 19 16 13 11 8 6 4 5 6 8 9 12 15 17 20 19 18 15 13 12 13 14 17 16
10 10 10 10 10 10 9 9 8 8 8 9 10 10 10 9 9 9 10 11 10 9 9 10 9 9 10 12 12 13 13 12 12 12 13 15 17 18 18 18 18 19 21 22 22 20 17 13 9 7 5 4 5 6 8 10 12 15 17 19 19 17 15 14 12 13 14 17 17
10 10 10 10 10 10 10 10 9 9 10 11 11 11 10 9 9 10 11 11 11 11 11 11 10 10 11 13 12 12 11 11 12 13 14 16 17 17 17 17 18 19 20 22 21 19 15 11 8 6 5 5 6 7 8 10 11 14 16 17 17 16 14 14 13 13 14 16 17
10 10 10 10 10 11 11 11 11 11 11 11 11 10 11 11 11 11 11 11 12 12 12 11 11 11 12 14 13 13 12 12 12 14 16 18 18 18 17 18 18 19 20 21 19 15 11 8 7 6 5 4 5 7 8 9 11 12 14 15 15 14 13 13 13 13 14 15 17
10 10 10 10 10 11 11 11 11 11 11 10 10 11 11 11 11 12 12 12 12 12 12 11 11 12 13 14 15 14 13 11 12 14 17 18 18 18 18 18 19 19 19 18 14 10 7 6 6 5 4 4 6 7 8 9 11 13 14 14 14 12 12 12 13 13 14 15 17
10 10 10 10 10 11 11 11 10 11 11 10 10 11 11 11 11 12 12 13 12 12 12 11 11 12 13 14 15 15 13 11 11 14 16 18 18 18 17 17 18 18 17 14 10 8 6 6 5 4 4 5 6 7 8 8 11 13 14 13 13 12 11 11 13 14 14 15 16
10 9 9 10 10 10 11 11 10 10 10 11 11 11 11 11 12 12 13 12 12 12 11 11 11 12 12 13 14 14 13 11 12 13 15 16 16 16 16 16 16 17 16 14 10 8 6 6 5 4 4 5 7 8 8 9 10 12 13 13 13 12 11 10 12 13 15 15 16
9 9 9 9 10 10 11 11 10 10 10 10 11 11 11 11 12 12 12 12 11 11 11 11 10 11 12 12 13 14 13 13 13 15 16 16 16 16 16 15 15 16 15 12 9 7 6 6 6 5 6 6 8 9 9 10 11 12 12 11 12 12 11 10 10 12 14 15 15
9 9 9 8 9 10 10 10 10 10 10 10 11 11 11 11 11 11 12 12 11 11 11 10 10 10 11 12 12 13 13 13 14 16 17 18 17 16 15 14 14 14 13 10 9 8 7 6 6 6 7 7 8 9 9 10 11 10 9 9 10 11 11 10 9 11 13 15 15
9 9 9 9 9 10 10 10 10 10 10 10 11 11 11 11 11 11 11 11 11 11 11 11 10 10 10 10 11 12 12 12 13 15 17 18 17 16 14 13 12 12 11 11 14 15 14 11 8 7 7 7 8 8 9 10 10 9 7 7 9 10 10 10 9 10 12 14 14
9 9 9 10 10 10 10 10 10 10 10 10 11 11 11 11 11 11 11 11 11 11 10 10 9 9 9 9 11 12 12 11 12 13 15 16 16 16 15 12 11 10 11 13 17 19 18 16 15 12 10 8 7 7 7 7 7 6 6 7 8 9 9 9 8 8 10 12 14
9 9 9 9 10 10 10 10 10 10 10 10 11 11 11 11 10 11 11 11 11 10 10 9 8 8 9 8 10 12 12 11 11 12 13 14 15 16 15 13 11 11 12 17 20 20 18 17 18 16 14 10 9 8 7 5 5 5 6 6 7 8 9 8 7 7 8 10 13
9 9 9 9 10 10 10 10 10 10 10 10 10 10 11 11 11 12 12 11 11 10 9 8 8 7 6 6 8 11 13 13 12 12 12 13 15 16 15 14 13 13 16 21 22 21 19 18 18 18 16 12 9 8 7 6 6 5 5 5 6 7 8 7 6 5 6 9 11
9 9 9 9 10 10 10 10 10 10 10 10 10 10 11 11 11 11 11 12 11 10 9 8 7 6 5 7 8 10 12 13 12 12 13 14 16 16 16 16 15 17 20 24 24 23 22 20 19 18 16 14 9 7 6 5 4 3 3 3 5 7 7 6 4 3 4 7 9
9 9 9 9 10 10 10 10 10 10 10 9 9 10 10 11 11 11 11 11 11 10 9 8 7 7 7 8 8 9 10 11 11 12 13 16 17 17 17 17 17 18 20 25 26 26 25 23 20 17 16 15 10 7 6 5 4 3 3 2 4 7 10 11 7 4 3 4 7
9 9 9 9 10 10 10 10 10 10 10 9 9 10 10 10 11 11 11 10 10 10 9 9 9 9 9 8 7 8 10 11 11 12 13 15 17 18 18 18 18 19 21 26 27 28 28 25 20 17 16 15 10 6 5 4 5 5 4 3 1 4 7 11 10 7 3 4 6
8 8 8 9 9 10 10 10 10 10 10 10 10 10 10 10 10 10 10 10 10 10 10 9 10 9 9 8 8 8 10 10 11 12 13 15 16 17 17 17 17 18 21 27 29 30 29 27 20 17 16 16 10 6 4 4 5 5 4 3 2 1 3 6 10 10 7 3 4
8 8 8 9 9 10 10 10 10 10 10 10 10 10 10 10 10 10 10 10 9 9 9 10 10 10 9 8 8 8 9 10 11 12 14 15 16 17 17 15 14 17 22 28 29 31 31 28 21 17 15 15 10 6 4 4 4 4 4 3 3 2 1 3 7 9 10 7 3
8 8 8 8 9 9 10 10 10 10 10 10 10 10 10 10 10 10 10 10 9 8 8 9 10 9 8 7 6 7 9 10 11 12 13 15 16 17 16 14 11 15 23 29 30 31 32 30 22 17 14 13 8 6 5 5 4 4 4 4 4 3 2 1 4 7 9 9 4
8 8 8 8 9 9 9 10 10 10 10 10 10 10 9 9 10 10 10 11 10 9 8 8 9 9 8 6 6 6 8 11 12 12 13 14 16 17 17 15 13 18 24 29 29 31 32 32 24 18 13 10 5 4 5 6 5 5 4 5 4 4 3 2 2 5 7 9 6
8 8 8 8 9 9 9 9 10 10 10 10 10 10 9 9 9 10 10 11 11 10 9 9 9 9 8 7 5 6 7 9 11 12 13 14 16 17 17 15 15 19 24 28 29 30 31 32 27 20 13 7 3 2 3 5 6 5 5 5 4 4 3 2 2 4 6 7 6
7 7 8 8 9 9 9 9 9 10 10 10 10 9 9 9 9 10 10 11 10 10 10 10 10 10 9 7 6 5 5 7 9 11 13 14 15 16 17 16 16 18 22 26 28 30 31 32 29 22 14 6 3 2 3 4 5 5 5 5 4 4 3 2 2 3 5 7 7
7 7 7 8 8 9 9 9 9 9 10 10 9 9 8 8 9 9 10 10 10 10 10 10 10 10 9 9 7 6 6 6 8 10 11 13 14 16 17 17 16 17 20 25 28 30 31 32 30 24 15 6 4 3 3 3 5 6 6 4 4 4 4 2 2 3 5 7 8
8 7 7 8 8 8 9 9 9 9 10 10 9 9 8 8 8 9 9 9 9 10 10 11 10 10 10 10 8 6 6 6 6 8 9 11 13 16 18 17 16 17 19 24 28 30 31 32 30 26 18 7 4 3 3 3 5 6 6 5 4 4 4 3 3 3 4 7 8
7 7 7 7 8 8 8 9 9 9 9 9 9 8 8 8 8 9 9 9 9 10 10 11 11 11 11 11 8 7 6 6 5 6 8 10 13 16 18 17 16 17 19 23 27 29 31 32 31 27 19 8 5 3 2 3 4 5 6 5 4 3 3 3 3 3 4 5 7
6 6 7 7 7 8 8 8 9 9 9 8 8 8 8 8 8 8 9 9 10 10 10 9 11 11 11 11 8 7 6 6 5 5 6 9 12 14 16 16 16 17 18 21 25 28 30 31 30 27 21 12 6 4 3 3 4 5 6 6 4 3 3 3 3 3 3 4 4
Wind_Direction
291 288 285 283 283 283 281 281 284 284 284 283 281 279 277 275 275 276 277 277 276 281 291 300 303 302 301 299 296 294 294 296 300 304 306 306 302 296 289 280 273 270 269 269 267 264 262 259 260 259 257 252 252 255 259 263 263 259 255 254 248 227 209 190 182 182 185 187 190
291 289 288 288 290 289 287 288 287 287 287 283 278 274 272 269 268 270 272 273 273 279 287 294 300 300 299 296 292 291 293 297 301 304 304 302 298 293 288 277 277 278 278 276 274 273 270 266 266 266 266 262 262 263 264 265 264 261 257 254 251 233 214 196 187 185 187 188 189
291 292 293 294 295 295 294 293 290 290 288 284 278 273 269 265 263 263 265 267 271 276 283 289 296 299 298 295 291 290 292 296 299 299 298 297 296 294 289 278 280 282 282 278 278 279 279 276 275 276 279 283 281 279 276 274 271 266 260 255 252 236 220 203 191 189 191 194 192
292 295 298 300 301 300 297 293 292 290 288 283 279 274 270 265 262 261 263 267 269 271 276 286 292 296 297 295 293 291 292 293 294 293 293 294 298 298 295 284 284 284 282 277 275 275 275 275 277 280 283 284 282 280 278 280 278 274 267 257 251 237 224 208 194 191 194 197 194
295 297 298 300 301 299 295 292 292 290 287 283 280 276 271 267 265 265 266 267 263 264 272 286 288 292 295 296 294 293 291 289 290 290 291 295 300 301 298 290 287 284 281 276 274 273 272 271 272 273 274 275 276 276 277 280 282 280 275 266 255 240 226 209 195 190 191 193 194
296 297 297 297 298 296 294 293 291 290 287 283 281 278 275 270 269 270 270 268 263 264 272 283 286 291 295 297 295 292 289 286 286 288 292 296 300 301 300 296 290 286 283 280 278 276 274 271 271 269 269 272 273 274 276 280 284 283 278 270 260 244 227 209 195 189 188 190 193
293 296 297 298 298 297 295 294 292 290 287 283 282 280 278 275 274 274 274 270 263 261 266 275 286 292 296 298 295 291 288 284 285 289 294 297 299 300 300 299 294 289 284 282 281 280 277 271 270 268 268 270 273 272 273 276 282 284 280 273 265 247 227 214 199 189 188 192 191
291 293 296 297 297 296 295 294 293 291 288 283 282 281 281 279 278 277 275 271 263 260 262 271 287 295 298 298 295 291 288 285 286 291 296 299 299 299 298 298 295 290 285 281 281 279 277 272 268 266 266 268 268 268 270 276 283 285 283 276 270 253 232 221 210 197 189 189 188
293 294 296 297 296 295 294 293 292 290 288 284 282 282 282 282 281 281 278 272 264 261 264 272 288 296 300 300 297 293 289 286 288 292 297 299 297 296 295 294 293 290 285 279 276 272 269 266 262 259 259 263 266 272 281 289 293 293 290 285 277 259 235 224 217 205 193 185 186
296 297 297 298 296 295 294 294 292 289 287 284 283 283 284 287 287 285 281 272 266 264 267 274 288 296 300 301 298 294 291 287 288 291 294 295 293 293 292 293 293 290 286 279 272 266 262 259 255 253 254 259 271 281 289 293 293 293 293 293 285 265 243 225 219 211 200 187 186
296 297 297 295 295 295 295 294 292 289 287 284 285 286 288 291 291 288 284 276 271 269 271 275 287 294 297 298 296 294 292 289 288 289 291 292 292 293 294 295 295 293 288 280 273 265 257 252 253 256 259 264 270 277 281 282 284 286 287 289 284 272 254 229 221 214 206 191 186
298 298 297 294 294 295 295 293 290 288 286 286 287 288 290 291 292 291 288 284 278 274 273 277 285 292 295 295 295 294 292 290 290 290 291 293 295 297 299 301 301 298 293 285 279 270 258 248 250 254 260 265 269 273 276 278 281 284 285 287 283 275 260 236 223 217 210 195 186
299 299 298 296 295 295 295 293 290 287 286 286 286 288 290 291 293 294 293 290 284 279 276 278 284 289 292 294 295 295 293 291 291 292 294 298 300 303 304 306 306 304 300 292 286 279 270 258 254 255 259 266 271 276 280 284 285 285 285 286 283 276 263 241 226 219 211 198 187
300 299 297 296 296 296 295 295 291 288 286 286 285 287 290 292 295 296 295 293 288 283 280 279 283 287 292 296 297 297 296 293 292 293 297 301 304 306 306 306 307 306 304 300 294 287 278 268 262 258 258 262 270 279 286 289 288 286 285 283 280 275 264 245 228 218 212 202 189
300 298 297 296 296 296 295 295 291 288 287 286 287 288 290 292 295 297 297 295 291 286 281 280 283 288 294 299 301 301 298 294 292 294 299 304 307 307 306 305 305 305 304 302 297 289 278 265 260 256 254 256 269 281 287 288 286 284 282 281 278 272 262 245 228 217 211 205 192
300 298 297 297 297 296 295 294 290 288 288 288 291 292 293 293 295 298 299 298 294 288 284 283 286 291 297 302 303 303 300 294 293 296 302 307 307 306 304 303 303 302 301 298 294 287 276 260 253 247 244 243 261 273 279 281 281 280 280 279 276 269 259 241 224 215 210 207 196
299 297 297 297 297 296 295 293 291 289 290 291 294 295 295 294 296 298 299 299 295 292 289 288 290 295 300 304 305 304 301 295 296 300 305 308 305 303 301 300 299 297 295 292 287 280 271 255 243 231 222 226 249 263 271 274 275 276 276 276 273 265 254 237 221 211 206 207 199
296 296 296 297 296 296 295 294 292 291 292 293 294 295 296 295 297 298 298 298 296 294 292 292 294 298 302 306 307 305 302 298 300 305 309 308 304 301 298 297 295 293 290 285 279 271 261 247 233 219 213 227 248 263 271 275 275 275 275 275 270 261 249 234 219 208 202 204 200
294 294 294 295 296 296 295 295 293 292 292 293 293 294 295 296 297 298 298 298 296 294 293 294 297 301 305 308 308 307 305 302 305 309 311 309 305 301 298 297 295 292 288 283 275 267 257 244 231 222 225 246 266 277 284 288 287 286 285 283 275 262 246 231 218 207 201 201 200
291 291 292 293 295 295 295 293 292 291 292 292 292 293 295 296 298 298 298 296 296 294 294 295 298 303 307 310 310 309 307 304 308 311 311 308 304 301 299 297 296 294 291 287 280 274 267 256 240 233 242 268 281 286 290 293 293 293 294 294 286 271 250 230 219 210 203 200 200
289 289 290 292 294 293 293 291 291 291 292 292 292 293 294 296 298 298 297 295 295 294 294 295 299 303 308 311 312 311 308 305 308 310 308 304 301 300 299 298 299 300 298 296 292 286 276 263 250 244 249 264 270 274 277 281 284 286 289 293 295 286 265 236 221 211 204 199 199
287 289 290 292 292 292 292 292 291 291 292 292 293 294 295 297 297 297 296 295 294 293 293 294 297 302 307 311 311 310 308 305 307 307 305 301 300 300 300 301 304 305 305 301 297 288 277 268 260 251 245 248 252 256 259 263 270 275 280 288 298 297 284 253 226 212 204 198 198
287 288 290 290 290 291 293 293 293 293 293 294 295 296 296 296 296 296 296 295 293 292 292 291 295 301 306 309 310 310 308 307 308 308 306 302 301 302 304 306 308 309 308 301 295 286 276 271 266 256 245 241 244 246 248 250 257 263 272 286 301 304 297 273 237 216 204 197 196
288 289 290 289 291 292 293 294 294 294 295 295 297 297 296 296 296 296 296 295 292 291 290 288 292 298 304 308 310 310 309 307 309 309 308 306 306 307 309 311 312 311 308 301 296 290 283 272 269 262 253 246 242 240 239 239 244 252 264 286 303 308 303 285 251 223 206 195 193
289 290 291 291 293 294 294 295 295 295 295 295 296 297 297 297 297 296 295 294 292 290 289 289 291 296 302 307 309 310 309 307 308 309 309 308 309 311 312 313 312 310 306 301 299 298 296 292 289 282 273 260 249 242 238 236 239 247 263 290 304 307 302 289 262 233 211 197 192
291 292 293 293 294 295 296 296 295 295 295 295 296 297 297 297 297 297 296 295 293 291 290 289 289 293 299 303 308 310 310 308 306 307 308 308 311 313 314 312 310 306 301 300 302 303 304 303 301 297 292 283 268 256 247 241 245 257 275 294 301 302 299 291 268 238 216 202 196
292 293 293 295 296 296 296 295 295 295 296 296 296 296 295 296 297 298 298 297 296 294 292 289 287 290 295 299 306 310 312 311 308 308 308 308 311 313 314 311 308 303 300 302 305 308 309 310 306 303 299 296 289 282 276 272 276 283 289 296 298 297 294 289 271 241 215 202 200
292 293 294 297 297 297 296 296 296 295 295 295 295 294 294 296 297 298 299 299 300 300 297 291 287 284 285 293 303 309 312 314 313 313 313 313 314 315 315 313 310 305 304 307 313 316 317 316 312 308 305 302 298 295 292 291 292 295 300 306 307 303 296 289 277 246 214 201 200
291 293 295 297 297 297 297 297 296 295 294 294 293 294 295 296 297 298 299 301 304 304 300 293 286 281 282 294 303 308 312 315 316 317 318 319 318 318 316 315 312 308 308 313 319 323 324 321 316 312 310 308 300 291 286 282 284 291 305 320 330 329 325 316 299 259 214 198 198
291 293 294 295 296 296 296 296 295 295 294 293 294 295 296 297 297 299 301 303 304 303 298 293 288 287 290 295 303 308 312 315 317 319 321 322 320 318 316 315 313 311 312 318 322 325 325 323 320 319 318 317 303 288 274 266 261 258 260 284 336 343 342 338 328 303 232 195 195
290 291 292 294 295 295 295 295 296 296 296 295 296 296 296 296 298 299 301 302 301 300 298 295 293 292 293 295 302 308 313 316 318 321 323 322 319 317 314 313 314 314 315 320 323 325 326 324 324 327 331 330 315 295 273 260 254 248 242 236 301 349 351 347 339 327 291 208 193
289 290 291 293 293 294 295 295 296 297 297 297 296 296 295 295 296 297 298 300 300 301 302 301 299 298 298 300 305 312 316 319 321 322 322 320 317 315 313 312 314 316 318 322 325 327 328 327 329 334 340 341 334 318 289 270 265 260 256 251 254 318 358 357 346 335 320 264 202
289 290 291 292 292 293 294 295 296 297 297 297 296 295 295 295 296 298 300 301 301 302 303 305 304 302 301 302 307 313 318 321 322 322 322 320 317 315 313 312 312 316 321 324 327 330 332 331 332 337 343 346 343 334 310 285 275 268 261 253 240 241 306 348 345 338 329 310 245
289 290 290 290 291 292 293 295 296 296 297 296 295 295 294 295 298 300 301 302 301 301 302 304 303 300 296 294 300 310 318 321 323 324 324 323 319 317 315 312 311 318 323 326 330 333 335 333 333 334 338 343 343 338 326 310 297 284 271 259 243 230 230 295 333 333 329 320 297
289 289 290 289 290 291 292 293 295 296 296 295 295 295 295 296 297 298 299 301 302 302 302 303 302 299 295 290 296 308 317 322 323 325 326 325 321 318 315 313 313 320 325 328 332 335 336 334 332 331 332 335 337 341 339 330 319 303 283 269 257 246 241 258 312 326 326 321 307
286 287 287 288 288 289 290 291 293 294 295 294 295 296 297 296 296 295 297 300 302 303 304 305 304 302 298 293 297 308 317 321 322 324 325 326 323 319 316 315 316 321 326 328 333 336 337 335 332 331 331 331 331 349 354 343 329 311 291 276 268 260 254 260 295 314 320 321 310
284 284 284 285 286 287 288 289 291 292 293 293 294 295 296 296 295 295 297 301 302 303 305 306 306 303 300 296 298 305 314 318 319 321 323 325 323 320 318 318 320 322 325 328 333 336 337 336 334 334 334 333 339 354 0 351 334 319 304 288 281 275 270 266 285 300 308 313 308
283 282 282 282 283 284 285 287 288 290 290 291 291 292 293 294 294 295 297 301 302 303 305 306 305 303 302 301 302 308 314 316 316 318 320 323 322 322 322 322 322 322 324 328 333 336 338 336 335 335 335 331 336 345 351 348 333 324 317 306 295 287 284 281 285 292 297 302 300
282 281 279 278 279 281 282 284 285 286 287 289 290 292 293 293 292 294 297 300 301 302 303 304 304 304 305 307 305 307 312 314 313 315 318 320 322 324 325 325 323 322 324 328 333 336 337 335 334 334 334 328 326 328 331 330 326 323 320 313 298 287 284 285 282 284 289 295 291
280 279 278 276 277 278 280 281 282 282 283 286 288 290 290 291 291 294 297 298 300 300 301 301 304 306 308 310 306 305 308 313 314 316 318 321 322 325 327 326 324 322 324 328 333 335 334 332 331 332 334 329 322 312 306 307 312 316 317 312 296 278 268 273 274 278 287 300 293
277 277 278 277 276 276 277 279 280 281 282 283 285 285 286 289 291 294 298 298 299 300 300 300 305 307 309 310 304 303 307 315 318 320 323 325 325 326 327 327 324 323 323 327 332 332 331 328 328 331 335 337 330 314 294 286 291 298 303 303 292 270 249 254 269 278 295 319 318